Home   Weather   Santa Cruz de Tenerife   Past weeks

Flag for Spain Past Weather in Santa Cruz de Tenerife, Canary Islands, Spain — Yesterday and Last 2 Weeks

Now
63 °F

Partly cloudy.


Feels Like: 63 °F
Forecast: 74 / 77 °F
Wind: 12 mph from Northwest

Location: Tenerife / Los Rodeos

Current Time: Jul 24, 2017 at 5:55:12 am

Latest Report: Jul 24, 2017 at 5:00 am


Visibility: 6 mi

Pressure: 30.15 "Hg

Humidity: 94%

Dew Point: 61 °F

Location of Santa Cruz de TenerifeLocation

Past Weather in Santa Cruz de Tenerife — Graph

°F

Santa Cruz de Tenerife Temperature Yesterday

Maximum temperature yesterday: 73 °F (at 2:00 pm)
Minimum temperature yesterday: 63 °F (at 12:00 am)
Average temperature yesterday: 65 °F

High & Low Weather Summary for the Past Weeks

 TemperatureHumidityPressure
High91 °F (Jul 16, 11:00 am)100% (Jul 9, 4:00 am)30.21 "Hg (Jul 9, 4:00 am)
Low61 °F (Jul 10, 7:00 am)14% (Jul 17, 9:30 am)30.04 "Hg (Jul 15, 5:00 am)
Average67 °F83%30.11 "Hg
* Reported Jul 9 4:00 am — Jul 24 4:30 am, Santa Cruz de Tenerife. Weather by CustomWeather, © 2017

Note: Actual official high and low records may vary slightly from our data, if they occured in-between our weather recording intervals... More about our weather records

Advertising

Santa Cruz de Tenerife Weather History for the Previous 24 Hours

Scroll right to see more
 ConditionsComfort  
Time TempWeatherWind HumidityBarometerVisibility
4:30 am
Mon, Jul 24
63 °FPassing clouds.12 mph94%30.15 "HgN/A
4:00 am63 °FPartly cloudy.12 mph94%30.15 "HgN/A
3:30 am63 °FPassing clouds.12 mph94%30.18 "HgN/A
3:00 am63 °FPassing clouds.10 mph94%30.18 "HgN/A
2:30 am63 °FPassing clouds.14 mph94%30.18 "HgN/A
2:00 am63 °FPassing clouds.13 mph100%30.18 "HgN/A
1:30 am63 °FFog.13 mph100%30.21 "Hg0 mi
12:30 am63 °FFog.12 mph100%30.21 "Hg2 mi
12:00 am64 °FFog.14 mph100%30.21 "Hg2 mi
11:30 pm
Sun, Jul 23
63 °FFog.14 mph100%30.21 "Hg1 mi
11:00 pm63 °FPassing clouds.13 mph100%30.21 "Hg5 mi
10:30 pm64 °FLight rain. Passing clouds.20 mph100%30.18 "Hg5 mi
10:00 pm64 °FPassing clouds.20 mph88%30.18 "HgN/A
9:00 pm64 °FPartly sunny.22 mph88%30.18 "HgN/A
8:30 pm64 °FPartly sunny.24 mph88%30.18 "HgN/A
8:00 pm64 °FPartly sunny.23 mph94%30.15 "HgN/A
7:30 pm64 °FPartly sunny.23 mph88%30.15 "HgN/A
7:00 pm66 °FPartly sunny.25 mph83%30.15 "HgN/A
6:30 pm66 °FPartly sunny.25 mph83%30.15 "HgN/A
6:00 pm66 °FPartly sunny.23 mph83%30.15 "HgN/A
5:30 pm70 °FScattered clouds.23 mph73%30.18 "HgN/A
5:00 pm70 °FScattered clouds.22 mph69%30.18 "HgN/A
4:30 pm72 °FScattered clouds.21 mph69%30.18 "HgN/A
3:30 pm72 °FScattered clouds.21 mph65%30.18 "HgN/A
3:00 pm70 °FPassing clouds.20 mph64%30.18 "HgN/A
2:30 pm72 °FPassing clouds.16 mph69%30.18 "HgN/A
2:00 pm73 °FPassing clouds.13 mph57%30.21 "HgN/A
1:30 pm72 °FPassing clouds.17 mph65%30.21 "HgN/A
12:30 pm68 °FScattered clouds.16 mph69%30.21 "HgN/A
11:30 am72 °FScattered clouds.15 mph65%30.21 "HgN/A
11:00 am66 °FPartly sunny.15 mph78%30.21 "HgN/A
10:30 am68 °FPartly sunny.16 mph73%30.21 "HgN/A
10:00 am66 °FScattered clouds.15 mph73%30.21 "HgN/A
9:30 am64 °FScattered clouds.17 mph78%30.18 "HgN/A
9:00 am63 °FPartly sunny.18 mph83%30.18 "HgN/A
8:30 am63 °FPartly sunny.20 mph88%30.15 "HgN/A
8:00 am63 °FLight rain. Partly sunny.18 mph94%30.15 "Hg4 mi
7:30 am63 °FPartly sunny.20 mph94%30.15 "HgN/A
6:30 am63 °FPassing clouds.20 mph94%30.15 "HgN/A
6:00 am63 °FPassing clouds.20 mph88%30.12 "HgN/A
5:30 am63 °FOvercast.18 mph83%30.12 "HgN/A
5:00 am63 °FOvercast.20 mph88%30.12 "HgN/A
Weather by CustomWeather, © 2017

See weather overviewHow to use our weather pages